OSCAR 7 (AO-7) 1 07530U 74089B 26255.99247534 -.00000039 00000+0 49142-4 0 9992 2 07530 101.9920 270.1572 0012058 325.1941 61.1110 12.53699587371527 PHASE 3B (AO-10) 1 14129U 83058B 26253.81923402 -.00000299 00000+0 00000+0 0 9997 2 14129 25.9748 205.5539 5983154 139.1490 286.0555 2.05871418297257 UOSAT 2 (UO-11) 1 14781U 84021B 26255.87428304 .00001012 00000+0 10811-3 0 9999 2 14781 97.8165 220.5280 0006071 251.0779 108.9781 14.90986592270199 LUSAT (LO-19) 1 20442U 90005G 26255.95024092 .00000054 00000+0 35863-4 0 9994 2 20442 98.8825 280.1629 0010687 312.4269 47.6010 14.34143447914974 EYESAT A (AO-27) 1 22825U 93061C 26255.68376101 .00000057 00000+0 38805-4 0 9999 2 22825 98.6801 323.0302 0008045 196.2222 163.8704 14.30960766719511 ITAMSAT (IO-26) 1 22826U 93061D 26255.63704034 .00000060 00000+0 39484-4 0 9993 2 22826 98.6748 322.9102 0008904 179.5666 180.5526 14.31389607719820 RADIO ROSTO (RS15) 1 23439U 94085A 26255.91814941 -.00000047 00000+0 -14055-3 0 9994 2 23439 64.8161 161.3297 0159067 348.0944 11.6239 11.27583998305797 JAS-2 (FO-29) 1 24278U 96046B 26255.84767514 -.00000021 00000+0 16464-4 0 9998 2 24278 98.5171 92.7021 0349097 228.8399 128.2138 13.53277885485023 TECHSAT 1B (GO-32) 1 25397U 98043D 26255.93791031 .00000022 00000+0 29687-4 0 9992 2 25397 99.0150 250.9421 0001121 17.3116 342.8100 14.24442506463822 ISS (ZARYA) 1 25544U 98067A 26255.59495341 .00005107 00000+0 10048-3 0 9998 2 25544 51.6306 227.4903 0004922 132.5649 227.5755 15.49091282585302 PCSAT (NO-44) 1 26931U 01043C 26255.74457709 .00000051 00000+0 49926-4 0 9991 2 26931 67.0526 17.8015 0005731 272.3489 87.6957 14.31983012302988 SAUDISAT 1C (SO-50) 1 27607U 02058C 26255.34048358 .00000673 00000+0 97028-4 0 9997 2 27607 64.5512 219.2993 0072132 246.4793 112.8724 14.83206830277389 CUTE-1 (CO-55) 1 27844U 03031E 26255.91589892 .00000179 00000+0 96441-4 0 9997 2 27844 98.6770 263.3860 0008464 294.0699 65.9594 14.24380316204166 CUBESAT XI-IV (CO-57) 1 27848U 03031J 26255.52689313 .00000152 00000+0 85845-4 0 9994 2 27848 98.6802 262.6439 0008618 316.5319 43.5180 14.23659046203801 MOZHAETS 4 (RS22) 1 27939U 03042A 26255.96329832 .00000270 00000+0 49713-4 0 9997 2 27939 98.3475 82.8264 0011264 357.0990 162.0829 14.73596007228478 CUBESAT XI-V 1 28895U 05043F 26255.91133324 .00000902 00000+0 14925-3 0 9994 2 28895 98.3100 53.4464 0012788 288.9484 71.0337 14.72822156114667 CUTE-1.7+APD II (CO-65) 1 32785U 08021C 26255.93022429 .00003157 00000+0 19749-3 0 9995 2 32785 97.8370 239.2654 0010501 90.2378 270.0054 15.10147055998438 SEEDS II (CO-66) 1 32791U 08021J 26255.92791784 .00014847 00000+0 43250-3 0 9990 2 32791 97.7562 258.2268 0003235 45.5539 314.5968 15.35498779 731 YUBILEINY (RS30) 1 32953U 08025A 26255.98055296 .00000061 00000+0 36464-3 0 9993 2 32953 82.5032 300.8395 0020660 119.0023 241.3131 12.43182988830600 KKS-1 (KISEKI) 1 33499U 09002H 26255.95695496 .00000964 00000+0 12447-3 0 9991 2 33499 98.1161 179.7856 0008247 16.0926 344.0548 14.83309898949209 SWISSCUBE 1 35932U 09051B 26255.67013054 .00000677 00000+0 14286-3 0 9996 2 35932 98.3945 165.0499 0005815 309.5214 50.5473 14.62620507901949 BEESAT-1 1 35933U 09051C 26255.72579499 .00000564 00000+0 12275-3 0 9994 2 35933 98.3871 164.5563 0004587 329.2694 30.8237 14.61836967901970 ITUPSAT1 1 35935U 09051E 26255.72510042 .00000526 00000+0 11838-3 0 9997 2 35935 98.3951 163.6522 0007011 337.3534 22.7356 14.60548507901515 XIWANG-1 (HOPE-1) 1 36122U 09072B 26255.87078021 -.00000371 00000+0 -85507-3 0 9995 2 36122 100.4112 208.3300 0008029 37.2906 322.8763 13.16439675804544 O/OREOS (USA 219) 1 37224U 10062C 26255.38163344 .00001462 00000+0 14267-3 0 9994 2 37224 71.9678 242.7772 0016611 260.7424 99.1868 14.94027904129664 JUGNU 1 37839U 11058B 26255.96877204 .00000404 00000+0 71528-4 0 9992 2 37839 19.9598 135.1075 0018452 325.9888 163.6736 14.13797658771466 SRMSAT 1 37841U 11058D 26255.68220501 .00000362 00000+0 52563-4 0 9997 2 37841 19.9711 249.8734 0011982 86.8018 70.1276 14.11591944770198 STRAND-1 1 39090U 13009E 26255.91727027 .00000165 00000+0 69775-4 0 9998 2 39090 98.3969 74.0234 0008087 336.3958 23.6857 14.37205787709660 ZACUBE-1 (TSHEPISOSAT) 1 39417U 13066B 26255.64409639 .00004248 00000+0 32534-3 0 9998 2 39417 97.8132 218.4269 0040008 320.6731 39.1589 15.01788424693858 GOMX-1 1 39430U 13066Q 26255.81535686 .00001420 00000+0 21759-3 0 9990 2 39430 97.6437 90.7556 0128422 155.2534 205.4908 14.69688581682788 CUBEBUG-2 (LO-74) 1 39440U 13066AA 26255.86630624 .00002874 00000+0 26453-3 0 9994 2 39440 97.8977 205.2795 0058590 96.3658 264.4239 14.94251623690083 FUNCUBE-1 (AO-73) 1 39444U 13066AE 26255.92451434 .00005305 00000+0 32143-3 0 9990 2 39444 97.8381 229.3176 0033414 264.8342 94.9073 15.10570394692909 UWE-3 1 39446U 13066AG 26255.42765863 .00003848 00000+0 32704-3 0 9994 2 39446 97.8789 212.1574 0049274 30.7163 329.6926 14.97533493690633 UNISAT-6 1 40012U 14033C 26255.93081436 .00002034 00000+0 22013-3 0 9991 2 40012 97.7999 47.1833 0045593 137.9010 222.5724 14.88616882659211 DUCHIFAT-1 1 40021U 14033M 26255.71508776 .01221689 91697-3 15000-2 0 9991 2 40021 98.0156 329.0850 0007785 256.5561 103.4852 16.08127678669552 QB50P1 1 40025U 14033R 26255.96767994 .00005193 00000+0 24869-3 0 9998 2 40025 98.0961 273.3545 0006882 288.0602 71.9881 15.19428308666356 LILACSAT-2 1 40908U 15049K 26255.84625013 .00015439 00000+0 23836-3 0 9995 2 40908 97.4561 296.1552 0004582 296.6799 63.3985 15.54212394609355 FOX-1A (AO-85) 1 40967U 15058D 26255.67108149 .00001265 00000+0 12068-3 0 9994 2 40967 64.7757 7.0092 0137965 23.8137 336.9276 14.91382531126616 CAS-2T & KS-1Q 1 41847U 16066G 26255.70851627 .00000767 00000+0 11709-3 0 9999 2 41847 98.3758 330.4378 0340425 223.8127 133.5597 14.44837316517431 RADFXSAT (FOX-1B) 1 43017U 17073E 26255.62380646 .00007196 00000+0 30542-3 0 9997 2 43017 97.4559 121.0531 0148240 27.0260 333.8591 15.13875574478619 DIWATA-2B 1 43678U 18084H 26255.98870749 .00001114 00000+0 93008-4 0 9991 2 43678 98.1176 96.0622 0011409 234.0416 125.9749 15.00721567429389 ES'HAIL 2 1 43700U 18090A 26255.85718339 .00000132 00000+0 00000+0 0 9990 2 43700 0.0104 125.0794 0002570 79.6473 121.5172 1.00274121 28556 FOX-1CLIFF (AO-95) 1 43770U 18099N 26255.39712328 .00008014 00000+0 29245-3 0 9990 2 43770 97.4293 315.3835 0009204 48.1897 312.0127 15.28368524426537 ITASAT 1 43786U 18099AE 26255.60394002 .00004900 00000+0 23016-3 0 9996 2 43786 97.3938 305.3882 0013449 52.6109 307.6349 15.19999175426181 JY1SAT (JO-97) 1 43803U 18099AX 26255.90645420 .00013942 00000+0 39663-3 0 9993 2 43803 97.4035 319.1683 0004116 328.4328 31.6668 15.36242297427083 UWE-4 1 43880U 18111E 26254.79316819 .00036048 00000+0 60916-3 0 9993 2 43880 97.5821 187.5119 0007723 33.1993 326.9742 15.51497401424185 TIANYAN 01 1 44881U 19093C 26255.95152236 .00000403 00000+0 51389-4 0 9996 2 44881 97.7465 326.0140 0014064 152.5135 207.6828 14.86629088364455 RS-44 & BREEZE-KM R/B 1 44909U 19096E 26255.56602212 .00000016 00000+0 26058-4 0 9996 2 44909 82.5175 281.6457 0216483 300.2350 57.7475 12.79749328313527 SALSAT 1 46495U 20068K 26255.95846815 .00005811 00000+0 19731-3 0 9998 2 46495 97.8880 264.4595 0009358 5.6980 354.4365 15.30896401328783 XW-3 (CAS-9) 1 50466U 21131B 26255.93715035 .00000080 00000+0 38193-4 0 9997 2 50466 98.4981 347.8495 0004000 178.0377 182.0829 14.41422456247757 GREENCUBE (IO-117) 1 53109U 22080E 26255.02938321 -.00000003 00000+0 00000+0 0 9990 2 53109 70.1217 268.0398 0009219 270.7714 89.1889 6.42583747 97648 UMKA 1 (RS40S) 1 57172U 23091G 26255.84042234 .00004474 00000+0 20066-3 0 9999 2 57172 97.4961 314.2111 0012865 166.4379 193.7205 15.21656687177336 CUBESX-HSE 3 (RS42S) 1 57178U 23091N 26255.94683387 .00010696 00000+0 33579-3 0 9992 2 57178 97.5008 322.7277 0011263 135.5152 224.6997 15.33144726177868 MONITOR-3 (RS58S) 1 57180U 23091Q 26255.91503459 .00007730 00000+0 27363-3 0 9992 2 57180 97.4996 320.0611 0012120 144.2030 216.0025 15.29355274177699 MONITOR-4 (RS57S) 1 57182U 23091S 26255.95444178 .00007995 00000+0 28212-3 0 9997 2 57182 97.4991 320.0768 0012110 144.2955 215.9097 15.29448433177703 MONITOR-2 (RS39S) 1 57184U 23091U 26255.91069893 .00003590 00000+0 17170-3 0 9990 2 57184 97.4982 313.6256 0011526 159.4919 200.6781 15.19585943177273 SVYATOBOR 1 (RS60S) 1 57187U 23091X 26255.91898528 .00006950 00000+0 25767-3 0 9992 2 57187 97.5003 320.2618 0010189 136.9561 223.2477 15.27893644177704 VIZARD-METEO (RS38S) 1 57189U 23091Z 26255.95502445 .00014212 00000+0 37494-3 0 9998 2 57189 97.5013 327.3251 0008104 114.0835 246.1258 15.38559915178178 POLYTECH-UNIVERSE 3 (R*) 1 57191U 23091AB 26255.92558680 .00003601 00000+0 17093-3 0 9993 2 57191 97.4958 313.1455 0015272 177.6142 182.5168 15.19803404177274 UTMN 2 (RS27S) 1 57203U 23091AP 26255.91774100 .00010218 00000+0 31313-3 0 9996 2 57203 97.5006 324.4375 0008782 122.9351 237.2737 15.33951078177987 KUZGTU 1 (RS47S) 1 57217U 23091AV 26255.95537480 .00009637 00000+0 31764-3 0 9996 2 57217 97.4979 321.4011 0011444 139.7807 220.4283 15.31610705177803 SONATE-2 1 59112U 24043Q 26255.90012521 .00044768 00000+0 44382-3 0 9993 2 59112 97.5616 52.1901 0005293 232.7961 127.2816 15.65675779141585 MESAT1 1 60209U 24125G 26255.56744340 .00089558 00000+0 59992-3 0 9995 2 60209 97.2110 115.6774 0005710 230.2913 129.7849 15.74981162123261 GRBBETA 1 60237U 24128C 26255.41247155 .00002052 00000+0 14903-3 0 9992 2 60237 61.9881 270.1095 0027907 153.8471 206.4038 15.07161152119419 OOV-CUBE (TUBSAT-30) 1 60240U 24128F 26255.54495499 .00001150 00000+0 99578-4 0 9996 2 60240 61.9932 280.8863 0032351 154.0544 206.2178 15.03089057119247 COLIBRI-S (RS67S) 1 61746U 24199M 26255.95582051 .00020418 00000+0 34981-3 0 9996 2 61746 97.2810 130.7585 0006616 336.3490 23.7457 15.51228555151003 HORS 3 (RS81S) 1 61753U 24199U 26255.94918552 .00042144 00000+0 49480-3 0 9992 2 61753 97.2804 133.8642 0003419 343.0182 17.0961 15.61362074151229 HORS 4 (RS82S) 1 61754U 24199V 26255.95348172 .00071720 00000+0 61458-3 0 9990 2 61754 97.2733 135.8104 0001750 336.0022 24.1158 15.69198469151362 SIT-2086 1 61764U 24199AF 26255.90520583 .00041335 00000+0 52172-3 0 9996 2 61764 97.2761 133.9898 0003398 312.2177 47.8792 15.59463668148075 ALTAIR (RS65S) 1 61779U 24199AW 26255.95875106 .00008634 00000+0 22887-3 0 9996 2 61779 97.2878 124.7592 0012059 359.0363 1.0857 15.38501051150601 ASRTU-1 (AO-123) 1 61781U 24199AY 26255.90281911 .00006314 00000+0 17726-3 0 9998 2 61781 97.2848 123.7885 0013368 1.7641 358.3649 15.36817553147393 SAMSAT-IONOSPHERE (RS7*) 1 61784U 24199BB 26255.90651798 .00060736 00000+0 58628-3 0 9999 2 61784 97.2759 134.3098 0004373 330.9261 29.1756 15.66283837151259 RTU MIREA 1 (RS51S) 1 61785U 24199BC 26255.91969954 .00088645 00000+0 64939-3 0 9998 2 61785 97.2737 135.7773 0002802 328.0175 32.0919 15.72906017148202 LASARSAT 1 62391U 24247Q 26255.03457442 .00034352 00000+0 56378-3 0 9997 2 62391 44.9719 132.2111 0008733 184.2264 175.8556 15.51841192 96780 CROCUBE 1 62394U 24247T 26254.06680705 .00040936 00000+0 60575-3 0 9991 2 62394 44.9695 133.3082 0009251 188.0193 172.0553 15.54622235 96687 TEVEL2-4 1 63213U 25052D 26255.99560891 .00016022 00000+0 43767-3 0 9996 2 63213 97.3768 152.6542 0004008 122.6638 237.4994 15.37475711 83596 TEVEL2-5 1 63214U 25052E 26255.70187488 .00015042 00000+0 41417-3 0 9994 2 63214 97.3764 152.2798 0003894 124.5192 235.6421 15.37243662 83548 TEVEL2-6 1 63215U 25052F 26255.97653810 .00015496 00000+0 42691-3 0 9999 2 63215 97.3769 152.5402 0003803 124.3577 235.8028 15.37221136 83585 TEVEL2-1 1 63217U 25052H 26255.51807863 .00015334 00000+0 43144-3 0 9995 2 63217 97.3743 151.5932 0003607 135.8171 224.3361 15.36566437 83493 TEVEL2-3 1 63218U 25052J 26255.96479367 .00014698 00000+0 41254-3 0 9991 2 63218 97.3744 152.0765 0003447 132.1482 228.0056 15.36654466 83562 TEVEL2-2 1 63219U 25052K 26255.97356739 .00014949 00000+0 42033-3 0 9995 2 63219 97.3741 152.0540 0003642 135.1349 225.0190 15.36593278 83562 OTP-2 1 63235U 25052AB 26254.67085481 .00006186 00000+0 25066-3 0 9993 2 63235 97.3738 145.8147 0005120 201.7884 158.3137 15.25004143 83044 TEVEL2-9 1 63237U 25052AD 26255.67940346 .00013940 00000+0 42072-3 0 9998 2 63237 97.3803 150.9301 0005908 168.8504 191.2871 15.34370297 83434 TEVEL2-7 1 63238U 25052AE 26255.67375680 .00013400 00000+0 40921-3 0 9994 2 63238 97.3804 150.7996 0005882 170.5927 189.5427 15.34006849 83429 TEVEL2-8 1 63239U 25052AF 26255.68274622 .00013122 00000+0 40093-3 0 9991 2 63239 97.3812 150.7830 0005867 170.5303 189.6051 15.33996621 83426 INNOSAT 16 (RS92S7) 1 64878U 25155C 26255.94182273 .00004397 00000+0 17225-3 0 9999 2 64878 97.4675 222.8935 0008692 229.6046 130.4435 15.26291838 94051 GEOSCAN 6 (RS92S6) 1 64879U 25155D 26255.96258761 .00007943 00000+0 26209-3 0 9990 2 64879 97.4660 225.0016 0006126 211.5812 148.5062 15.31679799 94195 GEOSCAN 1 (RS92S1) 1 64880U 25155E 26255.92684718 .00009281 00000+0 29891-3 0 9990 2 64880 97.4655 225.1984 0006028 211.0508 149.0378 15.32410352 94201 239ALFEROV (RS61S) 1 64881U 25155F 26255.95109201 .00012167 00000+0 35862-3 0 9995 2 64881 97.4651 226.1139 0005549 205.8135 154.2832 15.35158782 94263 GEOSCAN 2 (RS92S2) 1 64890U 25155Q 26255.97122738 .00008913 00000+0 28496-3 0 9996 2 64890 97.4655 225.4289 0005892 193.9785 166.1295 15.32657162 94228 GEOSCAN 5 (RS92S5) 1 64891U 25155R 26255.92291824 .00012466 00000+0 36403-3 0 9990 2 64891 97.4643 226.2546 0004413 208.7230 151.3771 15.35449170 94270 GEOSCAN 4 (RS92S4) 1 64892U 25155S 26255.96222360 .00012111 00000+0 35157-3 0 9996 2 64892 97.4650 226.3723 0004296 207.2982 152.8037 15.35645235 94286 GEOSCAN 3 (RS92S3) 1 64893U 25155T 26255.96368437 .00015929 00000+0 42497-3 0 9998 2 64893 97.4634 227.0927 0004177 202.6559 157.4502 15.38211017 94334 INNOSAT 3 (RS92S0) 1 64894U 25155U 26255.95760079 .00042402 00000+0 74484-3 0 9993 2 64894 97.4570 230.0158 0003669 170.3583 189.7739 15.50393062 94534 KNACKSAT-2 1 67683U 98067XZ 26255.88532826 .00060474 00000+0 52338-3 0 9996 2 67683 51.6258 210.6477 0007940 154.9081 205.2303 15.68543545 34002 MARINA 1 69920U 26156BD 26255.67380007 .00001832 00000+0 18554-3 0 9996 2 69920 97.7445 155.0210 0006085 298.2342 61.8262 14.92156135 10044